Location: Cucq
(50.4773°N, 1.6202°E)
Time: 17:08:42
(UTC+00:00)

Meteor 1-12 Rocket - Pass Details

Date: 07 August 2020
Orbit: 854 x 927 km, 81.2° (Epoch: 24 September)

Event Time Altitude Azimuth Distance (km) Brightness Sun altitude
Exits shadow 01:11:33 41° 185° (S) 1,298 4.7 -21.3°
Maximum altitude 01:13:46 85° 100° (E) 930 4.3 -21.2°
Drops below altitude 10° 01:19:49 10° 13° (NNE) 2,638 7.9 -20.9°
Sets 01:22:19 0° 13° (NNE) 3,588 9.0 -20.7°
